Time,TemperatureF,DewpointF,PressureIn,WindDirection,WindDirectionDegrees,WindSpeedMPH,WindSpeedGustMPH,Humidity,HourlyPrecipIn,Conditions,Clouds,dailyrainin,SoftwareType,DateUTC
2013-02-06 00:00:00,24.0,20.7,29.85,East,90,2.0,16.0,87,0.00,,,-99.99,Weather View 32 v60,2013-02-06 05:00:00,
2013-02-06 00:05:00,24.0,20.7,29.85,East,90,3.0,16.0,87,0.00,,,-99.99,Weather View 32 v60,2013-02-06 05:05:00,
2013-02-06 00:10:00,24.0,20.4,29.85,East,90,4.0,16.0,86,0.00,,,-99.99,Weather View 32 v60,2013-02-06 05:10:00,
2013-02-06 00:15:00,24.0,20.4,29.85,East,90,4.0,16.0,86,0.00,,,-99.99,Weather View 32 v60,2013-02-06 05:15:00,
2013-02-06 00:20:00,24.0,20.4,29.85,ESE,112,5.0,16.0,86,0.00,,,-99.99,Weather View 32 v60,2013-02-06 05:20:00,
2013-02-06 00:25:00,23.0,20.0,29.85,ENE,67,3.0,16.0,88,0.00,,,-99.99,Weather View 32 v60,2013-02-06 05:25:00,
2013-02-06 00:30:00,24.0,20.7,29.85,North,360,1.0,16.0,87,0.00,,,-99.99,Weather View 32 v60,2013-02-06 05:30:00,
2013-02-06 00:35:00,24.0,20.4,29.85,East,90,2.0,12.0,86,0.00,,,-99.99,Weather View 32 v60,2013-02-06 05:35:00,
2013-02-06 00:40:00,24.0,20.4,29.86,NE,45,4.0,11.0,86,0.00,,,-99.99,Weather View 32 v60,2013-02-06 05:40:00,
2013-02-06 00:45:00,23.0,19.7,29.86,NNE,22,3.0,11.0,87,0.00,,,-99.99,Weather View 32 v60,2013-02-06 05:45:00,
2013-02-06 00:50:00,24.0,20.4,29.87,East,90,5.0,11.0,86,0.00,,,-99.99,Weather View 32 v60,2013-02-06 05:50:00,
2013-02-06 00:55:00,23.0,19.7,29.87,North,360,5.0,11.0,87,0.00,,,-99.99,Weather View 32 v60,2013-02-06 05:55:00,
2013-02-06 01:00:00,24.0,19.9,29.88,North,360,2.0,11.0,84,0.00,,,-99.99,Weather View 32 v60,2013-02-06 06:00:00,
2013-02-06 01:05:00,23.0,19.2,29.88,NE,45,4.0,11.0,85,0.00,,,-99.99,Weather View 32 v60,2013-02-06 06:05:00,
2013-02-06 01:10:00,24.0,20.1,29.89,NE,45,4.0,10.0,85,0.00,,,-99.99,Weather View 32 v60,2013-02-06 06:10:00,
2013-02-06 01:15:00,24.0,20.1,29.89,NE,45,6.0,10.0,85,0.00,,,-99.99,Weather View 32 v60,2013-02-06 06:15:00,
2013-02-06 01:20:00,24.0,19.6,29.88,North,360,4.0,10.0,83,0.00,,,-99.99,Weather View 32 v60,2013-02-06 06:20:00,
2013-02-06 01:25:00,24.0,19.9,29.88,North,360,2.0,10.0,84,0.00,,,-99.99,Weather View 32 v60,2013-02-06 06:25:00,
2013-02-06 01:30:00,24.0,20.1,29.89,North,360,2.0,10.0,85,0.00,,,-99.99,Weather View 32 v60,2013-02-06 06:30:00,
2013-02-06 01:35:00,24.0,19.6,29.89,East,90,3.0,10.0,83,0.00,,,-99.99,Weather View 32 v60,2013-02-06 06:35:00,
2013-02-06 01:40:00,24.0,19.6,29.89,NE,45,6.0,10.0,83,0.00,,,-99.99,Weather View 32 v60,2013-02-06 06:40:00,
2013-02-06 01:45:00,23.0,18.9,29.89,East,90,5.0,10.0,84,0.00,,,-99.99,Weather View 32 v60,2013-02-06 06:45:00,
2013-02-06 01:50:00,24.0,19.6,29.89,ENE,67,1.0,11.0,83,0.00,,,-99.99,Weather View 32 v60,2013-02-06 06:50:00,
2013-02-06 01:55:00,23.0,18.9,29.89,East,90,3.0,11.0,84,0.00,,,-99.99,Weather View 32 v60,2013-02-06 06:55:00,
2013-02-06 02:00:00,23.0,18.9,29.89,East,90,3.0,11.0,84,0.00,,,-99.99,Weather View 32 v60,2013-02-06 07:00:00,
2013-02-06 02:05:00,23.0,18.9,29.89,East,90,4.0,11.0,84,0.00,,,-99.99,Weather View 32 v60,2013-02-06 07:05:00,
2013-02-06 02:10:00,23.0,19.2,29.90,East,90,2.0,11.0,85,0.00,,,-99.99,Weather View 32 v60,2013-02-06 07:10:00,
2013-02-06 02:15:00,23.0,19.2,29.90,East,90,3.0,11.0,85,0.00,,,-99.99,Weather View 32 v60,2013-02-06 07:15:00,
2013-02-06 02:20:00,23.0,18.3,29.90,East,90,3.0,11.0,82,0.00,,,-99.99,Weather View 32 v60,2013-02-06 07:20:00,
2013-02-06 02:25:00,23.0,18.9,29.90,East,90,2.0,11.0,84,0.00,,,-99.99,Weather View 32 v60,2013-02-06 07:25:00,
2013-02-06 02:30:00,23.0,18.9,29.90,East,90,2.0,11.0,84,0.00,,,-99.99,Weather View 32 v60,2013-02-06 07:30:00,
2013-02-06 02:35:00,23.0,18.9,29.90,East,90,4.0,11.0,84,0.00,,,-99.99,Weather View 32 v60,2013-02-06 07:35:00,
2013-02-06 02:40:00,23.0,19.2,29.90,ESE,112,4.0,11.0,85,0.00,,,-99.99,Weather View 32 v60,2013-02-06 07:40:00,
2013-02-06 02:45:00,23.0,19.4,29.90,ESE,112,4.0,11.0,86,0.00,,,-99.99,Weather View 32 v60,2013-02-06 07:45:00,
2013-02-06 02:50:00,23.0,19.4,29.91,SE,135,6.0,9.0,86,0.00,,,-99.99,Weather View 32 v60,2013-02-06 07:50:00,
2013-02-06 02:55:00,23.0,19.7,29.91,SE,135,2.0,9.0,87,0.00,,,-99.99,Weather View 32 v60,2013-02-06 07:55:00,
2013-02-06 03:00:00,23.0,19.7,29.91,East,90,3.0,9.0,87,0.00,,,-99.99,Weather View 32 v60,2013-02-06 08:00:00,
2013-02-06 03:05:00,23.0,19.7,29.91,ESE,112,4.0,9.0,87,0.00,,,-99.99,Weather View 32 v60,2013-02-06 08:05:00,
2013-02-06 03:10:00,23.0,19.7,29.91,SE,135,2.0,9.0,87,0.00,,,-99.99,Weather View 32 v60,2013-02-06 08:10:00,
2013-02-06 03:15:00,23.0,19.7,29.91,ESE,112,3.0,8.0,87,0.00,,,-99.99,Weather View 32 v60,2013-02-06 08:15:00,
2013-02-06 03:20:00,23.0,19.7,29.92,SE,135,5.0,7.0,87,0.00,,,-99.99,Weather View 32 v60,2013-02-06 08:20:00,
2013-02-06 03:25:00,22.0,18.7,29.92,SE,135,5.0,7.0,87,0.00,,,-99.99,Weather View 32 v60,2013-02-06 08:25:00,
2013-02-06 03:30:00,23.0,19.7,29.92,SE,135,5.0,7.0,87,0.00,,,-99.99,Weather View 32 v60,2013-02-06 08:30:00,
2013-02-06 03:35:00,23.0,20.2,29.92,SE,135,5.0,8.0,89,0.00,,,-99.99,Weather View 32 v60,2013-02-06 08:35:00,
2013-02-06 03:40:00,23.0,19.4,29.93,SE,135,5.0,8.0,86,0.00,,,-99.99,Weather View 32 v60,2013-02-06 08:40:00,
2013-02-06 03:45:00,23.0,19.4,29.93,SE,135,3.0,8.0,86,0.00,,,-99.99,Weather View 32 v60,2013-02-06 08:45:00,
2013-02-06 03:50:00,23.0,19.2,29.93,SE,135,4.0,8.0,85,0.00,,,-99.99,Weather View 32 v60,2013-02-06 08:50:00,
2013-02-06 03:55:00,23.0,19.4,29.93,SE,135,5.0,8.0,86,0.00,,,-99.99,Weather View 32 v60,2013-02-06 08:55:00,
2013-02-06 04:00:00,23.0,19.7,29.93,SE,135,4.0,8.0,87,0.00,,,-99.99,Weather View 32 v60,2013-02-06 09:00:00,
2013-02-06 04:05:00,23.0,19.7,29.93,SE,135,4.0,8.0,87,0.00,,,-99.99,Weather View 32 v60,2013-02-06 09:05:00,
2013-02-06 04:10:00,23.0,20.2,29.93,SE,135,3.0,8.0,89,0.00,,,-99.99,Weather View 32 v60,2013-02-06 09:10:00,
2013-02-06 04:15:00,22.0,19.0,29.93,SE,135,4.0,8.0,88,0.00,,,-99.99,Weather View 32 v60,2013-02-06 09:15:00,
2013-02-06 04:20:00,23.0,20.2,29.93,SE,135,5.0,8.0,89,0.00,,,-99.99,Weather View 32 v60,2013-02-06 09:20:00,
2013-02-06 04:25:00,22.0,19.3,29.93,SE,135,4.0,8.0,89,0.00,,,-99.99,Weather View 32 v60,2013-02-06 09:25:00,
2013-02-06 04:30:00,23.0,20.2,29.94,SE,135,3.0,8.0,89,0.00,,,-99.99,Weather View 32 v60,2013-02-06 09:30:00,
2013-02-06 04:35:00,22.0,19.3,29.94,SE,135,4.0,7.0,89,0.00,,,-99.99,Weather View 32 v60,2013-02-06 09:35:00,
2013-02-06 04:45:00,22.0,19.3,29.95,SE,135,6.0,7.0,89,0.00,,,-99.99,Weather View 32 v60,2013-02-06 09:45:00,
2013-02-06 04:50:00,22.0,19.0,29.94,SE,135,4.0,7.0,88,0.00,,,-99.99,Weather View 32 v60,2013-02-06 09:50:00,
2013-02-06 04:55:00,22.0,19.3,29.94,SE,135,4.0,7.0,89,0.00,,,-99.99,Weather View 32 v60,2013-02-06 09:55:00,
2013-02-06 05:00:00,22.0,19.3,29.95,SE,135,4.0,7.0,89,0.00,,,-99.99,Weather View 32 v60,2013-02-06 10:00:00,
2013-02-06 05:05:00,22.0,19.3,29.95,SE,135,3.0,7.0,89,0.00,,,-99.99,Weather View 32 v60,2013-02-06 10:05:00,
2013-02-06 05:35:00,22.0,18.7,29.96,SSE,157,3.0,7.0,87,0.00,,,-99.99,Weather View 32 v60,2013-02-06 10:35:00,
2013-02-06 05:40:00,22.0,18.7,29.97,SSE,157,5.0,7.0,87,0.00,,,-99.99,Weather View 32 v60,2013-02-06 10:40:00,
2013-02-06 05:44:00,22.0,18.7,29.95,SE,135,5.0,7.0,87,0.00,,,-99.99,Weather View 32 v60,2013-02-06 10:44:00,
2013-02-06 05:45:00,22.0,19.3,29.97,SE,135,6.0,7.0,89,0.00,,,-99.99,Weather View 32 v60,2013-02-06 10:45:00,
2013-02-06 05:55:00,21.0,18.5,29.96,SE,135,6.0,7.0,90,0.00,,,-99.99,Weather View 32 v60,2013-02-06 10:55:00,
2013-02-06 05:59:00,22.0,19.3,29.94,SE,135,4.0,7.0,89,0.00,,,-99.99,Weather View 32 v60,2013-02-06 10:59:00,
2013-02-06 06:00:00,22.0,19.3,29.97,SE,135,5.0,7.0,89,0.00,,,-99.99,Weather View 32 v60,2013-02-06 11:00:00,
2013-02-06 06:05:00,21.0,18.8,29.97,SE,135,5.0,7.0,91,0.00,,,-99.99,Weather View 32 v60,2013-02-06 11:05:00,
2013-02-06 06:14:00,22.0,19.3,29.95,SSE,157,4.0,7.0,89,0.00,,,-99.99,Weather View 32 v60,2013-02-06 11:14:00,
2013-02-06 06:15:00,21.0,18.8,29.98,SE,135,5.0,7.0,91,0.00,,,-99.99,Weather View 32 v60,2013-02-06 11:15:00,
2013-02-06 06:19:00,22.0,19.3,29.95,SSE,157,2.0,7.0,89,0.00,,,-99.99,Weather View 32 v60,2013-02-06 11:19:00,
2013-02-06 06:20:00,22.0,19.3,29.99,SSE,157,4.0,8.0,89,0.00,,,-99.99,Weather View 32 v60,2013-02-06 11:20:00,
2013-02-06 06:24:00,22.0,19.0,29.95,SSE,157,5.0,7.0,88,0.00,,,-99.99,Weather View 32 v60,2013-02-06 11:24:00,
2013-02-06 06:25:00,22.0,19.3,29.99,SSE,157,5.0,8.0,89,0.00,,,-99.99,Weather View 32 v60,2013-02-06 11:25:00,
2013-02-06 06:29:00,22.0,18.7,29.95,SE,135,4.0,7.0,87,0.00,,,-99.99,Weather View 32 v60,2013-02-06 11:29:00,
2013-02-06 06:34:00,22.0,18.7,29.96,SE,135,5.0,7.0,87,0.00,,,-99.99,Weather View 32 v60,2013-02-06 11:34:00,
2013-02-06 06:50:00,22.0,19.0,29.99,SE,135,5.0,8.0,88,0.00,,,-99.99,Weather View 32 v60,2013-02-06 11:50:00,
2013-02-06 06:54:00,22.0,19.3,29.96,SE,135,6.0,7.0,89,0.00,,,-99.99,Weather View 32 v60,2013-02-06 11:54:00,
2013-02-06 06:55:00,22.0,19.0,29.99,SE,135,4.0,8.0,88,0.00,,,-99.99,Weather View 32 v60,2013-02-06 11:55:00,
2013-02-06 07:05:00,22.0,19.5,29.99,SE,135,7.0,9.0,90,0.00,,,-99.99,Weather View 32 v60,2013-02-06 12:05:00,
2013-02-06 07:14:00,21.0,18.8,29.98,SE,135,5.0,7.0,91,0.00,,,-99.99,Weather View 32 v60,2013-02-06 12:14:00,
2013-02-06 07:34:00,22.0,19.3,29.99,SSE,157,4.0,8.0,89,0.00,,,-99.99,Weather View 32 v60,2013-02-06 12:34:00,
2013-02-06 07:35:00,21.0,18.8,30.00,SSE,157,8.0,14.0,91,0.00,,,-99.99,Weather View 32 v60,2013-02-06 12:35:00,
2013-02-06 07:39:00,22.0,19.3,29.99,South,180,3.0,8.0,89,0.00,,,-99.99,Weather View 32 v60,2013-02-06 12:39:00,
2013-02-06 07:40:00,22.0,19.5,30.00,SSE,157,11.0,16.0,90,0.00,,,-99.99,Weather View 32 v60,2013-02-06 12:40:00,
2013-02-06 07:44:00,22.0,19.3,29.99,South,180,4.0,8.0,89,0.00,,,-99.99,Weather View 32 v60,2013-02-06 12:44:00,
2013-02-06 07:49:00,22.0,19.5,29.99,SE,135,4.0,8.0,90,0.00,,,-99.99,Weather View 32 v60,2013-02-06 12:49:00,
2013-02-06 07:55:00,22.0,19.3,30.00,SE,135,10.0,16.0,89,0.00,,,-99.99,Weather View 32 v60,2013-02-06 12:55:00,
2013-02-06 08:01:00,22.0,19.0,29.99,SE,135,4.0,8.0,88,0.00,,,-99.99,Weather View 32 v60,2013-02-06 13:01:00,
2013-02-06 08:14:00,22.0,19.5,29.99,SE,135,9.0,12.0,90,0.00,,,-99.99,Weather View 32 v60,2013-02-06 13:14:00,
2013-02-06 08:19:00,21.0,19.0,29.99,SE,135,11.0,14.0,92,0.00,,,-99.99,Weather View 32 v60,2013-02-06 13:19:00,
2013-02-06 08:24:00,21.0,18.8,30.00,SE,135,7.0,14.0,91,0.00,,,-99.99,Weather View 32 v60,2013-02-06 13:24:00,
2013-02-06 08:29:00,21.0,18.8,30.00,SE,135,5.0,14.0,91,0.00,,,-99.99,Weather View 32 v60,2013-02-06 13:29:00,
2013-02-06 08:30:00,24.0,20.4,30.02,SSW,202,6.0,16.0,86,0.00,,,-99.99,Weather View 32 v60,2013-02-06 13:30:00,
2013-02-06 08:34:00,21.0,18.8,30.00,SSE,157,5.0,14.0,91,0.00,,,-99.99,Weather View 32 v60,2013-02-06 13:34:00,
2013-02-06 08:45:00,24.0,19.9,30.02,South,180,3.0,15.0,84,0.00,,,-99.99,Weather View 32 v60,2013-02-06 13:45:00,
2013-02-06 08:49:00,22.0,19.5,30.00,SSE,157,4.0,16.0,90,0.00,,,-99.99,Weather View 32 v60,2013-02-06 13:49:00,
2013-02-06 08:54:00,22.0,19.5,30.00,SE,135,8.0,16.0,90,0.00,,,-99.99,Weather View 32 v60,2013-02-06 13:54:00,
2013-02-06 08:55:00,25.0,21.1,30.02,SE,135,4.0,15.0,85,0.00,,,-99.99,Weather View 32 v60,2013-02-06 13:55:00,
2013-02-06 08:59:00,22.0,19.3,30.00,SE,135,10.0,16.0,89,0.00,,,-99.99,Weather View 32 v60,2013-02-06 13:59:00,
2013-02-06 09:00:00,25.0,20.0,30.01,South,180,5.0,15.0,81,0.00,,,-99.99,Weather View 32 v60,2013-02-06 14:00:00,
2013-02-06 09:05:00,26.0,21.5,30.01,South,180,9.0,15.0,83,0.00,,,-99.99,Weather View 32 v60,2013-02-06 14:05:00,
2013-02-06 09:09:00,22.0,19.5,30.00,SE,135,9.0,16.0,90,0.00,,,-99.99,Weather View 32 v60,2013-02-06 14:09:00,
2013-02-06 09:14:00,23.0,20.2,30.01,SE,135,6.0,16.0,89,0.00,,,-99.99,Weather View 32 v60,2013-02-06 14:14:00,
2013-02-06 09:19:00,23.0,20.2,30.01,SSE,157,6.0,16.0,89,0.00,,,-99.99,Weather View 32 v60,2013-02-06 14:19:00,
2013-02-06 09:24:00,23.0,20.2,30.01,SE,135,3.0,16.0,89,0.00,,,-99.99,Weather View 32 v60,2013-02-06 14:24:00,
2013-02-06 09:29:00,23.0,19.4,30.01,SE,135,5.0,16.0,86,0.00,,,-99.99,Weather View 32 v60,2013-02-06 14:29:00,
2013-02-06 09:30:00,26.0,21.0,30.01,SW,225,8.0,15.0,81,0.00,,,-99.99,Weather View 32 v60,2013-02-06 14:30:00,
2013-02-06 09:39:00,24.0,19.9,30.02,SE,135,3.0,16.0,84,0.00,,,-99.99,Weather View 32 v60,2013-02-06 14:39:00,
2013-02-06 09:40:00,28.0,22.6,30.01,South,180,7.0,15.0,80,0.00,,,-99.99,Weather View 32 v60,2013-02-06 14:40:00,
2013-02-06 09:44:00,24.0,20.4,30.02,South,180,5.0,16.0,86,0.00,,,-99.99,Weather View 32 v60,2013-02-06 14:44:00,
2013-02-06 09:54:00,25.0,20.9,30.02,SE,135,4.0,15.0,84,0.00,,,-99.99,Weather View 32 v60,2013-02-06 14:54:00,
2013-02-06 09:55:00,28.0,21.4,30.01,SSW,202,8.0,15.0,76,0.01,,,-99.99,Weather View 32 v60,2013-02-06 14:55:00,
2013-02-06 09:59:00,25.0,21.1,30.02,SE,135,4.0,15.0,85,0.00,,,-99.99,Weather View 32 v60,2013-02-06 14:59:00,
2013-02-06 10:10:00,28.0,20.5,30.01,SW,225,10.0,19.0,73,0.01,,,-99.99,Weather View 32 v60,2013-02-06 15:10:00,
2013-02-06 10:14:00,26.0,21.0,30.02,SSE,157,8.0,15.0,81,0.00,,,-99.99,Weather View 32 v60,2013-02-06 15:14:00,
2013-02-06 10:19:00,26.0,20.4,30.02,SW,225,5.0,15.0,79,0.00,,,-99.99,Weather View 32 v60,2013-02-06 15:19:00,
2013-02-06 10:24:00,26.0,20.7,30.02,SW,225,9.0,15.0,80,0.00,,,-99.99,Weather View 32 v60,2013-02-06 15:24:00,
2013-02-06 10:29:00,26.0,21.0,30.02,WSW,247,7.0,15.0,81,0.00,,,-99.99,Weather View 32 v60,2013-02-06 15:29:00,
2013-02-06 10:39:00,27.0,21.4,30.01,South,180,10.0,15.0,79,0.00,,,-99.99,Weather View 32 v60,2013-02-06 15:39:00,
2013-02-06 10:45:00,28.0,21.4,30.03,SW,225,13.0,19.0,76,0.01,,,-99.99,Weather View 32 v60,2013-02-06 15:45:00,
2013-02-06 10:49:00,28.0,21.7,30.01,SSW,202,9.0,14.0,77,0.00,,,-99.99,Weather View 32 v60,2013-02-06 15:49:00,
2013-02-06 10:50:00,28.0,22.0,30.03,SW,225,6.0,19.0,78,0.01,,,-99.99,Weather View 32 v60,2013-02-06 15:50:00,
2013-02-06 10:54:00,28.0,21.7,30.01,South,180,12.0,15.0,77,0.00,,,-99.99,Weather View 32 v60,2013-02-06 15:54:00,
2013-02-06 10:55:00,28.0,22.6,30.03,SSW,202,8.0,19.0,80,0.00,,,-99.99,Weather View 32 v60,2013-02-06 15:55:00,
2013-02-06 11:00:00,28.0,22.0,30.02,SW,225,12.0,19.0,78,0.00,,,-99.99,Weather View 32 v60,2013-02-06 16:00:00,
2013-02-06 11:04:00,28.0,20.8,30.01,SW,225,11.0,18.0,74,0.01,,,-99.99,Weather View 32 v60,2013-02-06 16:04:00,
2013-02-06 11:05:00,28.0,23.2,30.02,SW,225,9.0,20.0,82,0.00,,,-99.99,Weather View 32 v60,2013-02-06 16:05:00,
2013-02-06 11:09:00,28.0,21.1,30.01,South,180,10.0,19.0,75,0.01,,,-99.99,Weather View 32 v60,2013-02-06 16:09:00,
2013-02-06 11:10:00,28.0,22.9,30.02,SSW,202,10.0,20.0,81,0.00,,,-99.99,Weather View 32 v60,2013-02-06 16:10:00,
2013-02-06 11:15:00,28.0,22.6,30.02,SW,225,7.0,20.0,80,0.00,,,-99.99,Weather View 32 v60,2013-02-06 16:15:00,
2013-02-06 11:19:00,27.0,20.1,30.01,SW,225,10.0,19.0,75,0.01,,,-99.99,Weather View 32 v60,2013-02-06 16:19:00,
2013-02-06 11:20:00,29.0,23.0,30.02,SW,225,16.0,20.0,78,0.00,,,-99.99,Weather View 32 v60,2013-02-06 16:20:00,
2013-02-06 11:24:00,28.0,21.7,30.02,SSW,202,7.0,19.0,77,0.01,,,-99.99,Weather View 32 v60,2013-02-06 16:24:00,
2013-02-06 11:25:00,28.0,22.3,30.02,SW,225,11.0,24.0,79,0.00,,,-99.99,Weather View 32 v60,2013-02-06 16:25:00,
2013-02-06 11:29:00,27.0,20.8,30.02,SW,225,11.0,19.0,77,0.01,,,-99.99,Weather View 32 v60,2013-02-06 16:29:00,
2013-02-06 11:30:00,28.0,22.0,30.02,SW,225,12.0,25.0,78,0.00,,,-99.99,Weather View 32 v60,2013-02-06 16:30:00,
2013-02-06 11:34:00,27.0,21.1,30.03,SW,225,11.0,19.0,78,0.01,,,-99.99,Weather View 32 v60,2013-02-06 16:34:00,
2013-02-06 11:35:00,28.0,22.6,30.02,SW,225,13.0,25.0,80,0.00,,,-99.99,Weather View 32 v60,2013-02-06 16:35:00,
2013-02-06 11:39:00,27.0,21.1,30.03,SW,225,12.0,19.0,78,0.01,,,-99.99,Weather View 32 v60,2013-02-06 16:39:00,
2013-02-06 11:40:00,28.0,22.6,30.01,SW,225,8.0,26.0,80,0.00,,,-99.99,Weather View 32 v60,2013-02-06 16:40:00,
2013-02-06 11:44:00,28.0,22.0,30.03,SW,225,7.0,19.0,78,0.01,,,-99.99,Weather View 32 v60,2013-02-06 16:44:00,
2013-02-06 11:45:00,28.0,22.6,30.01,SW,225,10.0,26.0,80,0.00,,,-99.99,Weather View 32 v60,2013-02-06 16:45:00,
2013-02-06 11:55:00,29.0,24.2,30.01,SW,225,4.0,26.0,82,0.00,,,-99.99,Weather View 32 v60,2013-02-06 16:55:00,
2013-02-06 12:00:00,29.0,23.6,30.01,SW,225,12.0,26.0,80,0.00,,,-99.99,Weather View 32 v60,2013-02-06 17:00:00,
2013-02-06 12:05:00,29.0,24.2,30.01,SW,225,7.0,26.0,82,0.00,,,-99.99,Weather View 32 v60,2013-02-06 17:05:00,
2013-02-06 12:10:00,29.0,24.2,30.01,SSW,202,8.0,26.0,82,0.00,,,-99.99,Weather View 32 v60,2013-02-06 17:10:00,
2013-02-06 12:15:00,28.0,23.2,30.01,SW,225,15.0,26.0,82,0.00,,,-99.99,Weather View 32 v60,2013-02-06 17:15:00,
2013-02-06 12:20:00,29.0,23.9,30.01,SW,225,11.0,26.0,81,0.00,,,-99.99,Weather View 32 v60,2013-02-06 17:20:00,
2013-02-06 12:25:00,29.0,23.6,30.01,SW,225,10.0,26.0,80,0.00,,,-99.99,Weather View 32 v60,2013-02-06 17:25:00,
2013-02-06 12:30:00,29.0,23.9,30.00,SW,225,14.0,26.0,81,0.00,,,-99.99,Weather View 32 v60,2013-02-06 17:30:00,
2013-02-06 12:35:00,29.0,24.5,30.00,SW,225,11.0,26.0,83,0.00,,,-99.99,Weather View 32 v60,2013-02-06 17:35:00,
2013-02-06 12:40:00,29.0,24.2,30.00,SW,225,10.0,24.0,82,0.00,,,-99.99,Weather View 32 v60,2013-02-06 17:40:00,
2013-02-06 12:54:00,28.0,22.6,30.01,SW,225,8.0,26.0,80,0.00,,,-99.99,Weather View 32 v60,2013-02-06 17:54:00,
2013-02-06 12:55:00,29.0,24.2,30.00,SW,225,9.0,24.0,82,0.00,,,-99.99,Weather View 32 v60,2013-02-06 17:55:00,
2013-02-06 13:00:00,29.0,24.5,30.00,WSW,247,11.0,24.0,83,0.00,,,-99.99,Weather View 32 v60,2013-02-06 18:00:00,
2013-02-06 13:10:00,29.0,24.2,30.00,SSW,202,7.0,24.0,82,0.00,,,-99.99,Weather View 32 v60,2013-02-06 18:10:00,
2013-02-06 13:20:00,29.0,24.2,29.99,SW,225,12.0,24.0,82,0.00,,,-99.99,Weather View 32 v60,2013-02-06 18:20:00,
2013-02-06 13:25:00,29.0,24.5,29.99,SW,225,13.0,24.0,83,0.00,,,-99.99,Weather View 32 v60,2013-02-06 18:25:00,
2013-02-06 13:30:00,29.0,24.2,29.99,SW,225,9.0,24.0,82,0.00,,,-99.99,Weather View 32 v60,2013-02-06 18:30:00,
2013-02-06 13:45:00,29.0,24.2,29.97,South,180,12.0,21.0,82,0.00,,,-99.99,Weather View 32 v60,2013-02-06 18:45:00,
2013-02-06 13:49:00,29.0,24.5,30.00,SW,225,6.0,24.0,83,0.00,,,-99.99,Weather View 32 v60,2013-02-06 18:49:00,
2013-02-06 13:50:00,30.0,25.2,29.98,WSW,247,9.0,21.0,82,0.00,,,-99.99,Weather View 32 v60,2013-02-06 18:50:00,
2013-02-06 13:54:00,29.0,24.5,30.00,SW,225,12.0,24.0,83,0.00,,,-99.99,Weather View 32 v60,2013-02-06 18:54:00,
2013-02-06 14:00:00,30.0,25.5,29.98,SW,225,15.0,21.0,83,0.00,,,-99.99,Weather View 32 v60,2013-02-06 19:00:00,
2013-02-06 14:05:00,29.0,24.2,29.98,SW,225,13.0,22.0,82,0.00,,,-99.99,Weather View 32 v60,2013-02-06 19:05:00,
2013-02-06 14:09:00,29.0,24.2,30.00,SW,225,11.0,24.0,82,0.00,,,-99.99,Weather View 32 v60,2013-02-06 19:09:00,
2013-02-06 14:10:00,30.0,25.2,29.99,West,270,19.0,31.0,82,0.00,,,-99.99,Weather View 32 v60,2013-02-06 19:10:00,
2013-02-06 14:19:00,29.0,24.2,30.00,SSW,202,5.0,24.0,82,0.00,,,-99.99,Weather View 32 v60,2013-02-06 19:19:00,
2013-02-06 14:25:00,29.0,24.2,29.99,West,270,13.0,31.0,82,0.00,,,-99.99,Weather View 32 v60,2013-02-06 19:25:00,
2013-02-06 14:30:00,29.0,23.6,29.99,West,270,15.0,31.0,80,0.00,,,-99.99,Weather View 32 v60,2013-02-06 19:30:00,
2013-02-06 14:35:00,29.0,23.6,29.99,West,270,11.0,31.0,80,0.00,,,-99.99,Weather View 32 v60,2013-02-06 19:35:00,
2013-02-06 14:39:00,29.0,24.5,29.99,SW,225,13.0,24.0,83,0.00,,,-99.99,Weather View 32 v60,2013-02-06 19:39:00,
2013-02-06 14:40:00,30.0,24.6,29.99,West,270,12.0,31.0,80,0.00,,,-99.99,Weather View 32 v60,2013-02-06 19:40:00,
2013-02-06 14:44:00,29.0,24.2,29.97,SW,225,18.0,21.0,82,0.00,,,-99.99,Weather View 32 v60,2013-02-06 19:44:00,
2013-02-06 14:45:00,30.0,24.6,29.99,WSW,247,12.0,31.0,80,0.00,,,-99.99,Weather View 32 v60,2013-02-06 19:45:00,
2013-02-06 14:50:00,30.0,24.3,29.99,WSW,247,10.0,31.0,79,0.00,,,-99.99,Weather View 32 v60,2013-02-06 19:50:00,
2013-02-06 14:59:00,30.0,25.5,29.98,SW,225,10.0,21.0,83,0.00,,,-99.99,Weather View 32 v60,2013-02-06 19:59:00,
2013-02-06 15:00:00,30.0,24.0,29.99,West,270,11.0,31.0,78,0.00,,,-99.99,Weather View 32 v60,2013-02-06 20:00:00,
2013-02-06 15:04:00,30.0,25.5,29.98,SW,225,15.0,21.0,83,0.00,,,-99.99,Weather View 32 v60,2013-02-06 20:04:00,
2013-02-06 15:10:00,30.0,24.9,29.99,West,270,9.0,27.0,81,0.00,,,-99.99,Weather View 32 v60,2013-02-06 20:10:00,
2013-02-06 15:15:00,30.0,24.9,29.99,West,270,9.0,27.0,81,0.00,,,-99.99,Weather View 32 v60,2013-02-06 20:15:00,
2013-02-06 15:19:00,29.0,24.2,29.99,WSW,247,10.0,31.0,82,0.00,,,-99.99,Weather View 32 v60,2013-02-06 20:19:00,
2013-02-06 15:20:00,30.0,25.2,29.99,West,270,7.0,27.0,82,0.00,,,-99.99,Weather View 32 v60,2013-02-06 20:20:00,
2013-02-06 15:24:00,30.0,25.2,29.99,West,270,14.0,31.0,82,0.00,,,-99.99,Weather View 32 v60,2013-02-06 20:24:00,
2013-02-06 15:25:00,30.0,25.2,29.99,WSW,247,9.0,27.0,82,0.00,,,-99.99,Weather View 32 v60,2013-02-06 20:25:00,
2013-02-06 15:30:00,30.0,25.5,29.99,WSW,247,8.0,27.0,83,0.00,,,-99.99,Weather View 32 v60,2013-02-06 20:30:00,
2013-02-06 15:40:00,29.0,24.5,29.99,SW,225,6.0,22.0,83,0.00,,,-99.99,Weather View 32 v60,2013-02-06 20:40:00,
2013-02-06 15:50:00,30.0,24.6,29.99,SW,225,9.0,22.0,80,0.00,,,-99.99,Weather View 32 v60,2013-02-06 20:50:00,
2013-02-06 15:59:00,30.0,24.3,29.99,WSW,247,13.0,31.0,79,0.00,,,-99.99,Weather View 32 v60,2013-02-06 20:59:00,
2013-02-06 16:05:00,30.0,24.3,29.98,SW,225,3.0,22.0,79,0.00,,,-99.99,Weather View 32 v60,2013-02-06 21:05:00,
2013-02-06 16:09:00,29.0,23.6,29.99,West,270,16.0,31.0,80,0.00,,,-99.99,Weather View 32 v60,2013-02-06 21:09:00,
2013-02-06 16:20:00,30.0,25.2,29.99,SW,225,0.0,15.0,82,0.00,,,-99.99,Weather View 32 v60,2013-02-06 21:20:00,
2013-02-06 16:30:00,29.0,23.6,29.99,SSW,202,4.0,12.0,80,0.00,,,-99.99,Weather View 32 v60,2013-02-06 21:30:00,
2013-02-06 16:35:00,29.0,23.6,29.99,SW,225,4.0,12.0,80,0.00,,,-99.99,Weather View 32 v60,2013-02-06 21:35:00,
2013-02-06 16:39:00,29.0,24.2,29.99,WSW,247,11.0,25.0,82,0.00,,,-99.99,Weather View 32 v60,2013-02-06 21:39:00,
2013-02-06 16:40:00,29.0,23.6,30.00,SW,225,4.0,12.0,80,0.00,,,-99.99,Weather View 32 v60,2013-02-06 21:40:00,
2013-02-06 16:49:00,30.0,25.2,29.99,SW,225,3.0,22.0,82,0.00,,,-99.99,Weather View 32 v60,2013-02-06 21:49:00,
2013-02-06 16:50:00,29.0,24.2,30.00,SW,225,5.0,12.0,82,0.00,,,-99.99,Weather View 32 v60,2013-02-06 21:50:00,
2013-02-06 16:55:00,28.0,22.9,30.00,SW,225,6.0,9.0,81,0.00,,,-99.99,Weather View 32 v60,2013-02-06 21:55:00,
2013-02-06 16:59:00,30.0,24.6,29.99,SW,225,5.0,22.0,80,0.00,,,-99.99,Weather View 32 v60,2013-02-06 21:59:00,
2013-02-06 17:00:00,29.0,24.2,30.00,South,180,4.0,9.0,82,0.00,,,-99.99,Weather View 32 v60,2013-02-06 22:00:00,
2013-02-06 17:04:00,30.0,24.3,29.98,SW,225,7.0,22.0,79,0.00,,,-99.99,Weather View 32 v60,2013-02-06 22:04:00,
2013-02-06 17:14:00,30.0,24.3,29.99,SW,225,5.0,18.0,79,0.00,,,-99.99,Weather View 32 v60,2013-02-06 22:14:00,
2013-02-06 17:19:00,30.0,24.9,29.99,SW,225,4.0,15.0,81,0.00,,,-99.99,Weather View 32 v60,2013-02-06 22:19:00,
2013-02-06 17:25:00,29.0,24.5,30.01,South,180,5.0,10.0,83,0.00,,,-99.99,Weather View 32 v60,2013-02-06 22:25:00,
2013-02-06 17:35:00,28.0,23.5,30.00,SSE,157,4.0,10.0,83,0.00,,,-99.99,Weather View 32 v60,2013-02-06 22:35:00,
2013-02-06 17:40:00,29.0,24.5,30.00,South,180,5.0,10.0,83,0.00,,,-99.99,Weather View 32 v60,2013-02-06 22:40:00,
2013-02-06 17:45:00,29.0,24.5,30.00,SE,135,5.0,10.0,83,0.00,,,-99.99,Weather View 32 v60,2013-02-06 22:45:00,
2013-02-06 17:49:00,28.0,22.9,30.00,SW,225,5.0,12.0,81,0.00,,,-99.99,Weather View 32 v60,2013-02-06 22:49:00,
2013-02-06 18:09:00,29.0,23.9,30.00,SW,225,5.0,9.0,81,0.00,,,-99.99,Weather View 32 v60,2013-02-06 23:09:00,
2013-02-06 18:14:00,29.0,24.2,30.01,SW,225,5.0,9.0,82,0.00,,,-99.99,Weather View 32 v60,2013-02-06 23:14:00,
2013-02-06 18:19:00,28.0,23.5,30.01,SSW,202,8.0,10.0,83,0.00,,,-99.99,Weather View 32 v60,2013-02-06 23:19:00,
2013-02-06 18:24:00,29.0,24.5,30.01,SSW,202,5.0,10.0,83,0.00,,,-99.99,Weather View 32 v60,2013-02-06 23:24:00,
2013-02-06 18:35:00,29.0,24.5,30.00,SSW,202,5.0,10.0,83,0.00,,,-99.99,Weather View 32 v60,2013-02-06 23:35:00,
2013-02-06 18:54:00,29.0,24.5,29.99,SE,135,5.0,10.0,83,0.00,,,-99.99,Weather View 32 v60,2013-02-06 23:54:00,
2013-02-06 19:04:00,29.0,24.5,29.99,SE,135,6.0,10.0,83,0.00,,,-99.99,Weather View 32 v60,2013-02-07 00:04:00,
2013-02-06 19:05:00,28.0,22.6,29.97,SE,135,8.0,13.0,80,0.00,,,-99.99,Weather View 32 v60,2013-02-07 00:05:00,
2013-02-06 19:09:00,28.0,23.5,29.99,SE,135,4.0,10.0,83,0.00,,,-99.99,Weather View 32 v60,2013-02-07 00:09:00,
2013-02-06 19:10:00,29.0,23.3,29.97,SE,135,10.0,13.0,79,0.00,,,-99.99,Weather View 32 v60,2013-02-07 00:10:00,
2013-02-06 19:14:00,29.0,24.2,29.98,SE,135,7.0,10.0,82,0.00,,,-99.99,Weather View 32 v60,2013-02-07 00:14:00,
2013-02-06 19:19:00,28.0,23.2,29.98,SE,135,5.0,10.0,82,0.00,,,-99.99,Weather View 32 v60,2013-02-07 00:19:00,
2013-02-06 19:24:00,29.0,24.2,29.99,SSE,157,8.0,10.0,82,0.00,,,-99.99,Weather View 32 v60,2013-02-07 00:24:00,
2013-02-06 19:25:00,29.0,23.0,29.96,SE,135,4.0,14.0,78,0.00,,,-99.99,Weather View 32 v60,2013-02-07 00:25:00,
2013-02-06 19:29:00,28.0,22.9,29.99,SE,135,6.0,10.0,81,0.00,,,-99.99,Weather View 32 v60,2013-02-07 00:29:00,
2013-02-06 19:34:00,29.0,23.6,29.99,SE,135,7.0,10.0,80,0.00,,,-99.99,Weather View 32 v60,2013-02-07 00:34:00,
2013-02-06 19:39:00,29.0,23.9,29.99,SE,135,7.0,10.0,81,0.00,,,-99.99,Weather View 32 v60,2013-02-07 00:39:00,
2013-02-06 19:44:00,29.0,23.6,29.98,SE,135,13.0,13.0,80,0.00,,,-99.99,Weather View 32 v60,2013-02-07 00:44:00,
2013-02-06 19:49:00,29.0,23.0,29.98,SE,135,7.0,13.0,78,0.00,,,-99.99,Weather View 32 v60,2013-02-07 00:49:00,
2013-02-06 19:54:00,29.0,23.6,29.97,SE,135,8.0,13.0,80,0.00,,,-99.99,Weather View 32 v60,2013-02-07 00:54:00,
2013-02-06 19:59:00,28.0,22.6,29.97,SE,135,7.0,13.0,80,0.00,,,-99.99,Weather View 32 v60,2013-02-07 00:59:00,
2013-02-06 20:04:00,29.0,23.6,29.97,SE,135,10.0,13.0,80,0.00,,,-99.99,Weather View 32 v60,2013-02-07 01:04:00,
2013-02-06 20:19:00,29.0,23.3,29.97,SE,135,6.0,13.0,79,0.00,,,-99.99,Weather View 32 v60,2013-02-07 01:19:00,
2013-02-06 20:24:00,29.0,23.3,29.96,SSE,157,7.0,13.0,79,0.00,,,-99.99,Weather View 32 v60,2013-02-07 01:24:00,
2013-02-06 20:30:00,29.0,23.6,29.96,SE,135,5.0,25.0,80,0.00,,,-99.99,Weather View 32 v60,2013-02-07 01:30:00,
2013-02-06 20:34:00,29.0,23.0,29.96,SE,135,9.0,14.0,78,0.00,,,-99.99,Weather View 32 v60,2013-02-07 01:34:00,
2013-02-06 20:39:00,29.0,23.0,29.96,SE,135,10.0,14.0,78,0.00,,,-99.99,Weather View 32 v60,2013-02-07 01:39:00,
2013-02-06 20:44:00,29.0,23.3,29.95,SE,135,8.0,14.0,79,0.00,,,-99.99,Weather View 32 v60,2013-02-07 01:44:00,
2013-02-06 20:49:00,29.0,23.0,29.95,SE,135,8.0,14.0,78,0.00,,,-99.99,Weather View 32 v60,2013-02-07 01:49:00,
2013-02-06 20:54:00,29.0,23.3,29.95,South,180,9.0,14.0,79,0.00,,,-99.99,Weather View 32 v60,2013-02-07 01:54:00,
2013-02-06 20:55:00,29.0,23.9,29.97,SSE,157,9.0,25.0,81,0.00,,,-99.99,Weather View 32 v60,2013-02-07 01:55:00,
2013-02-06 20:59:00,29.0,23.3,29.95,South,180,8.0,14.0,79,0.00,,,-99.99,Weather View 32 v60,2013-02-07 01:59:00,
2013-02-06 21:05:00,29.0,23.9,29.97,SE,135,8.0,25.0,81,0.00,,,-99.99,Weather View 32 v60,2013-02-07 02:05:00,
2013-02-06 21:09:00,29.0,23.3,29.95,SSE,157,11.0,17.0,79,0.00,,,-99.99,Weather View 32 v60,2013-02-07 02:09:00,
2013-02-06 21:14:00,29.0,23.3,29.95,SE,135,16.0,17.0,79,0.00,,,-99.99,Weather View 32 v60,2013-02-07 02:14:00,
2013-02-06 21:19:00,29.0,23.3,29.95,SE,135,15.0,25.0,79,0.00,,,-99.99,Weather View 32 v60,2013-02-07 02:19:00,
2013-02-06 21:24:00,29.0,23.3,29.95,SE,135,15.0,25.0,79,0.00,,,-99.99,Weather View 32 v60,2013-02-07 02:24:00,
2013-02-06 21:29:00,29.0,23.3,29.95,SE,135,14.0,25.0,79,0.00,,,-99.99,Weather View 32 v60,2013-02-07 02:29:00,
2013-02-06 21:30:00,29.0,24.2,29.97,SE,135,5.0,22.0,82,0.00,,,-99.99,Weather View 32 v60,2013-02-07 02:30:00,
2013-02-06 21:34:00,29.0,23.6,29.96,SE,135,5.0,25.0,80,0.00,,,-99.99,Weather View 32 v60,2013-02-07 02:34:00,
2013-02-06 21:39:00,29.0,23.6,29.96,SE,135,6.0,25.0,80,0.00,,,-99.99,Weather View 32 v60,2013-02-07 02:39:00,
2013-02-06 21:44:00,29.0,23.6,29.96,SE,135,5.0,25.0,80,0.00,,,-99.99,Weather View 32 v60,2013-02-07 02:44:00,
2013-02-06 21:49:00,29.0,23.6,29.96,SE,135,11.0,25.0,80,0.00,,,-99.99,Weather View 32 v60,2013-02-07 02:49:00,
2013-02-06 21:54:00,29.0,23.6,29.97,SSE,157,14.0,25.0,80,0.00,,,-99.99,Weather View 32 v60,2013-02-07 02:54:00,
2013-02-06 22:04:00,29.0,23.9,29.97,SSE,157,10.0,25.0,81,0.00,,,-99.99,Weather View 32 v60,2013-02-07 03:04:00,
2013-02-06 22:05:00,28.0,23.2,29.97,SE,135,8.0,24.0,82,0.00,,,-99.99,Weather View 32 v60,2013-02-07 03:05:00,
2013-02-06 22:14:00,29.0,23.6,29.97,SE,135,9.0,25.0,80,0.00,,,-99.99,Weather View 32 v60,2013-02-07 03:14:00,
2013-02-06 22:19:00,29.0,23.9,29.97,SE,135,4.0,22.0,81,0.00,,,-99.99,Weather View 32 v60,2013-02-07 03:19:00,
2013-02-06 22:20:00,28.0,23.2,29.97,SE,135,11.0,24.0,82,0.00,,,-99.99,Weather View 32 v60,2013-02-07 03:20:00,
2013-02-06 22:24:00,29.0,24.2,29.97,SE,135,5.0,22.0,82,0.00,,,-99.99,Weather View 32 v60,2013-02-07 03:24:00,
2013-02-06 22:25:00,28.0,23.5,29.97,SE,135,10.0,24.0,83,0.00,,,-99.99,Weather View 32 v60,2013-02-07 03:25:00,
2013-02-06 22:29:00,28.0,23.2,29.97,SE,135,2.0,22.0,82,0.00,,,-99.99,Weather View 32 v60,2013-02-07 03:29:00,
2013-02-06 22:30:00,28.0,23.2,29.96,SE,135,16.0,24.0,82,0.00,,,-99.99,Weather View 32 v60,2013-02-07 03:30:00,
2013-02-06 22:34:00,29.0,24.2,29.97,SE,135,5.0,22.0,82,0.00,,,-99.99,Weather View 32 v60,2013-02-07 03:34:00,
2013-02-06 22:35:00,28.0,23.5,29.96,SE,135,17.0,24.0,83,0.00,,,-99.99,Weather View 32 v60,2013-02-07 03:35:00,
2013-02-06 22:39:00,28.0,23.2,29.97,SE,135,8.0,22.0,82,0.00,,,-99.99,Weather View 32 v60,2013-02-07 03:39:00,
2013-02-06 22:40:00,28.0,23.5,29.96,SE,135,14.0,24.0,83,0.00,,,-99.99,Weather View 32 v60,2013-02-07 03:40:00,
2013-02-06 22:44:00,28.0,23.2,29.97,SE,135,7.0,22.0,82,0.00,,,-99.99,Weather View 32 v60,2013-02-07 03:44:00,
2013-02-06 22:45:00,28.0,23.5,29.96,SE,135,14.0,25.0,83,0.00,,,-99.99,Weather View 32 v60,2013-02-07 03:45:00,
2013-02-06 22:50:00,28.0,23.5,29.95,SE,135,11.0,25.0,83,0.00,,,-99.99,Weather View 32 v60,2013-02-07 03:50:00,
2013-02-06 22:54:00,28.0,23.2,29.97,SSE,157,7.0,24.0,82,0.00,,,-99.99,Weather View 32 v60,2013-02-07 03:54:00,
2013-02-06 22:55:00,28.0,23.5,29.95,SE,135,12.0,26.0,83,0.00,,,-99.99,Weather View 32 v60,2013-02-07 03:55:00,
2013-02-06 22:59:00,28.0,23.2,29.97,SE,135,10.0,24.0,82,0.00,,,-99.99,Weather View 32 v60,2013-02-07 03:59:00,
2013-02-06 23:00:00,28.0,23.8,29.95,SE,135,7.0,26.0,84,0.00,,,-99.99,Weather View 32 v60,2013-02-07 04:00:00,
2013-02-06 23:04:00,28.0,23.2,29.97,SE,135,15.0,24.0,82,0.00,,,-99.99,Weather View 32 v60,2013-02-07 04:04:00,
2013-02-06 23:05:00,28.0,23.8,29.95,SE,135,8.0,26.0,84,0.00,,,-99.99,Weather View 32 v60,2013-02-07 04:05:00,
2013-02-06 23:10:00,28.0,23.8,29.95,SE,135,17.0,26.0,84,0.00,,,-99.99,Weather View 32 v60,2013-02-07 04:10:00,
2013-02-06 23:14:00,28.0,23.2,29.97,SE,135,7.0,24.0,82,0.00,,,-99.99,Weather View 32 v60,2013-02-07 04:14:00,
2013-02-06 23:15:00,28.0,23.8,29.95,SE,135,13.0,26.0,84,0.00,,,-99.99,Weather View 32 v60,2013-02-07 04:15:00,
2013-02-06 23:19:00,28.0,23.2,29.97,SSE,157,10.0,24.0,82,0.00,,,-99.99,Weather View 32 v60,2013-02-07 04:19:00,
2013-02-06 23:20:00,28.0,23.8,29.95,SE,135,13.0,26.0,84,0.00,,,-99.99,Weather View 32 v60,2013-02-07 04:20:00,
2013-02-06 23:25:00,28.0,23.8,29.95,SE,135,11.0,26.0,84,0.00,,,-99.99,Weather View 32 v60,2013-02-07 04:25:00,
2013-02-06 23:30:00,28.0,23.8,29.96,SE,135,6.0,26.0,84,0.00,,,-99.99,Weather View 32 v60,2013-02-07 04:30:00,
2013-02-06 23:35:00,27.0,22.8,29.96,SSE,157,5.0,26.0,84,0.00,,,-99.99,Weather View 32 v60,2013-02-07 04:35:00,
2013-02-06 23:40:00,28.0,23.8,29.97,SE,135,10.0,26.0,84,0.00,,,-99.99,Weather View 32 v60,2013-02-07 04:40:00,
2013-02-06 23:45:00,27.0,23.1,29.97,SE,135,7.0,26.0,85,0.00,,,-99.99,Weather View 32 v60,2013-02-07 04:45:00,
2013-02-06 23:50:00,28.0,24.1,29.97,SE,135,6.0,26.0,85,0.00,,,-99.99,Weather View 32 v60,2013-02-07 04:50:00,
2013-02-06 23:55:00,27.0,22.8,29.97,SE,135,10.0,26.0,84,0.00,,,-99.99,Weather View 32 v60,2013-02-07 04:55:00,